Location: Peebles
(55.6412°N, 3.1714°W)
Time: 15:29:27
(UTC+01:00)

LEMUR 2 NALLYWACKER - Pass Details

Date: 03 July 2022
Orbit: 502 x 518 km, 97.4° (Epoch: 16 August)

Event Time Altitude Azimuth Distance (km) Brightness Sun altitude
Rises 23:09:53 0° 206° (SSW) 2,644 ? -6.9°
Reaches altitude 10° 23:12:32 10° 227° (SW) 1,762 ? -7.1°
Maximum altitude 23:15:09 18° 270° (W) 1,349 ? -7.3°
Drops below altitude 10° 23:17:48 10° 314° (NW) 1,771 ? -7.5°
Sets 23:20:28 0° 335° (NNW) 2,664 ? -7.6°
